Time,TemperatureF,DewpointF,PressureIn,WindDirection,WindDirectionDegrees,WindSpeedMPH,WindSpeedGustMPH,Humidity,HourlyPrecipIn,Conditions,Clouds,dailyrainin,SoftwareType,DateUTC
2013-08-17 00:01:00,64.6,56.5,30.18,NNE,33,0.0,0.0,75,0.00,,,0.00,Wunderground v.1.15,2013-08-17 04:01:00,
2013-08-17 00:03:00,64.6,56.5,30.19,NNE,33,0.0,0.0,75,0.00,,,0.00,Wunderground v.1.15,2013-08-17 04:03:00,
2013-08-17 00:05:00,64.5,56.4,30.19,NNE,33,0.0,0.0,75,0.00,,,0.00,Wunderground v.1.15,2013-08-17 04:05:00,
2013-08-17 00:07:00,64.5,56.4,30.18,NNE,33,0.0,0.0,75,0.00,,,0.00,Wunderground v.1.15,2013-08-17 04:07:00,
2013-08-17 00:09:00,64.5,56.4,30.19,NNE,33,0.0,0.0,75,0.00,,,0.00,Wunderground v.1.15,2013-08-17 04:09:00,
2013-08-17 00:14:00,64.4,56.7,30.19,NNE,33,0.0,0.0,76,0.00,,,0.00,Wunderground v.1.15,2013-08-17 04:14:00,
2013-08-17 00:20:00,64.3,56.6,30.19,NNE,32,0.0,0.0,76,0.00,,,0.00,Wunderground v.1.15,2013-08-17 04:20:00,
2013-08-17 00:26:00,64.2,56.8,30.19,NNE,33,0.0,0.0,77,0.00,,,0.00,Wunderground v.1.15,2013-08-17 04:26:00,
2013-08-17 00:31:00,64.1,56.7,30.19,NNE,33,0.0,0.0,77,0.00,,,0.00,Wunderground v.1.15,2013-08-17 04:31:00,
2013-08-17 00:36:00,64.1,57.1,30.19,NNE,32,0.0,0.0,78,0.00,,,0.00,Wunderground v.1.15,2013-08-17 04:36:00,
2013-08-17 00:42:00,64.0,57.0,30.19,NNE,32,0.0,0.0,78,0.00,,,0.00,Wunderground v.1.15,2013-08-17 04:42:00,
2013-08-17 00:48:00,63.8,57.2,30.19,NNE,33,0.0,0.0,79,0.00,,,0.00,Wunderground v.1.15,2013-08-17 04:48:00,
2013-08-17 00:53:00,63.7,57.1,30.19,NNE,32,0.0,0.0,79,0.00,,,0.00,Wunderground v.1.15,2013-08-17 04:53:00,
2013-08-17 00:58:00,63.7,57.1,30.19,NNE,32,0.0,0.0,79,0.00,,,0.00,Wunderground v.1.15,2013-08-17 04:58:00,
2013-08-17 01:03:00,63.4,57.1,30.19,NNE,33,0.0,0.0,80,0.00,,,0.00,Wunderground v.1.15,2013-08-17 05:03:00,
2013-08-17 01:08:00,63.5,57.2,30.19,NNE,33,0.0,0.0,80,0.00,,,0.00,Wunderground v.1.15,2013-08-17 05:08:00,
2013-08-17 01:14:00,63.4,57.1,30.19,NNE,33,0.0,0.0,80,0.00,,,0.00,Wunderground v.1.15,2013-08-17 05:14:00,
2013-08-17 01:19:00,63.4,57.5,30.19,NNE,33,1.0,1.0,81,0.00,,,0.00,Wunderground v.1.15,2013-08-17 05:19:00,
2013-08-17 01:25:00,63.2,57.6,30.18,NNE,33,0.0,0.0,82,0.00,,,0.00,Wunderground v.1.15,2013-08-17 05:25:00,
2013-08-17 01:30:00,63.1,57.9,30.18,NNE,33,0.0,0.0,83,0.00,,,0.00,Wunderground v.1.15,2013-08-17 05:30:00,
2013-08-17 01:35:00,63.0,57.8,30.18,NNE,33,0.0,1.0,83,0.00,,,0.00,Wunderground v.1.15,2013-08-17 05:35:00,
2013-08-17 01:40:00,63.1,57.9,30.18,NNE,33,0.0,1.0,83,0.00,,,0.00,Wunderground v.1.15,2013-08-17 05:40:00,
2013-08-17 01:46:00,63.0,58.1,30.18,NNE,33,0.0,1.0,84,0.00,,,0.00,Wunderground v.1.15,2013-08-17 05:46:00,
2013-08-17 01:52:00,62.8,57.9,30.18,NNE,33,0.0,0.0,84,0.00,,,0.00,Wunderground v.1.15,2013-08-17 05:52:00,
2013-08-17 01:58:00,62.7,57.8,30.18,NNE,33,0.0,0.0,84,0.00,,,0.00,Wunderground v.1.15,2013-08-17 05:58:00,
2013-08-17 02:03:00,62.8,58.2,30.19,NNE,33,0.0,0.0,85,0.00,,,0.00,Wunderground v.1.15,2013-08-17 06:03:00,
2013-08-17 02:08:00,62.7,58.1,30.19,NNE,33,0.0,0.0,85,0.00,,,0.00,Wunderground v.1.15,2013-08-17 06:08:00,
2013-08-17 02:13:00,62.5,58.3,30.19,NNE,33,0.0,0.0,86,0.00,,,0.00,Wunderground v.1.15,2013-08-17 06:13:00,
2013-08-17 02:18:00,62.6,58.4,30.19,NNE,33,0.0,0.0,86,0.00,,,0.00,Wunderground v.1.15,2013-08-17 06:18:00,
2013-08-17 02:23:00,62.8,58.5,30.19,NNE,33,0.0,0.0,86,0.00,,,0.00,Wunderground v.1.15,2013-08-17 06:23:00,
2013-08-17 02:28:00,62.7,58.5,30.19,NNE,33,0.0,0.0,86,0.00,,,0.00,Wunderground v.1.15,2013-08-17 06:28:00,
2013-08-17 02:33:00,62.6,58.4,30.19,NNE,32,0.0,0.0,86,0.00,,,0.00,Wunderground v.1.15,2013-08-17 06:33:00,
2013-08-17 02:38:00,62.6,58.7,30.19,NNE,33,0.0,0.0,87,0.00,,,0.00,Wunderground v.1.15,2013-08-17 06:38:00,
2013-08-17 02:44:00,62.5,58.3,30.19,NNE,33,0.0,0.0,86,0.00,,,0.00,Wunderground v.1.15,2013-08-17 06:44:00,
2013-08-17 02:49:00,62.2,58.3,30.19,NNE,33,0.0,0.0,87,0.00,,,0.00,Wunderground v.1.15,2013-08-17 06:49:00,
2013-08-17 02:54:00,62.1,58.5,30.19,NNE,33,0.0,0.0,88,0.00,,,0.00,Wunderground v.1.15,2013-08-17 06:54:00,
2013-08-17 02:59:00,61.8,58.2,30.19,NNE,33,0.0,0.0,88,0.00,,,0.00,Wunderground v.1.15,2013-08-17 06:59:00,
2013-08-17 03:04:00,61.9,58.6,30.19,NNE,33,0.0,0.0,89,0.00,,,0.00,Wunderground v.1.15,2013-08-17 07:04:00,
2013-08-17 03:09:00,62.0,58.7,30.19,NNE,33,0.0,0.0,89,0.00,,,0.00,Wunderground v.1.15,2013-08-17 07:09:00,
2013-08-17 03:14:00,62.1,58.8,30.18,NNE,32,0.0,0.0,89,0.00,,,0.00,Wunderground v.1.15,2013-08-17 07:14:00,
2013-08-17 03:19:00,62.0,58.7,30.18,NNE,33,0.0,0.0,89,0.00,,,0.00,Wunderground v.1.15,2013-08-17 07:19:00,
2013-08-17 03:24:00,61.9,58.6,30.18,NNE,33,0.0,0.0,89,0.00,,,0.00,Wunderground v.1.15,2013-08-17 07:24:00,
2013-08-17 03:29:00,61.9,58.6,30.18,NNE,33,0.0,0.0,89,0.00,,,0.00,Wunderground v.1.15,2013-08-17 07:29:00,
2013-08-17 03:34:00,61.9,58.6,30.18,NNE,33,0.0,0.0,89,0.00,,,0.00,Wunderground v.1.15,2013-08-17 07:34:00,
2013-08-17 03:39:00,61.7,58.4,30.18,NNE,33,0.0,0.0,89,0.00,,,0.00,Wunderground v.1.15,2013-08-17 07:39:00,
2013-08-17 03:44:00,61.6,58.3,30.18,NNE,33,0.0,1.0,89,0.00,,,0.00,Wunderground v.1.15,2013-08-17 07:44:00,
2013-08-17 03:49:00,61.4,58.1,30.18,NNE,33,1.0,1.0,89,0.00,,,0.00,Wunderground v.1.15,2013-08-17 07:49:00,
2013-08-17 03:54:00,61.5,58.5,30.18,NNE,33,1.0,1.0,90,0.00,,,0.00,Wunderground v.1.15,2013-08-17 07:54:00,
2013-08-17 03:59:00,61.4,58.4,30.18,NNE,32,0.0,1.0,90,0.00,,,0.00,Wunderground v.1.15,2013-08-17 07:59:00,
2013-08-17 04:04:00,61.3,58.3,30.18,NNE,33,1.0,1.0,90,0.00,,,0.00,Wunderground v.1.15,2013-08-17 08:04:00,
2013-08-17 04:09:00,61.2,58.2,30.18,NNE,33,0.0,1.0,90,0.00,,,0.00,Wunderground v.1.15,2013-08-17 08:09:00,
2013-08-17 04:14:00,61.1,57.8,30.18,North,9,2.0,3.0,89,0.00,,,0.00,Wunderground v.1.15,2013-08-17 08:14:00,
2013-08-17 04:19:00,61.0,57.7,30.18,NNW,335,1.0,3.0,89,0.00,,,0.00,Wunderground v.1.15,2013-08-17 08:19:00,
2013-08-17 04:24:00,60.8,57.5,30.17,NNW,330,3.0,3.0,89,0.00,,,0.00,Wunderground v.1.15,2013-08-17 08:24:00,
2013-08-17 04:29:00,60.7,57.4,30.18,NNW,330,1.0,3.0,89,0.00,,,0.00,Wunderground v.1.15,2013-08-17 08:29:00,
2013-08-17 04:34:00,60.8,57.5,30.18,NNW,330,1.0,2.0,89,0.00,,,0.00,Wunderground v.1.15,2013-08-17 08:34:00,
2013-08-17 04:39:00,60.8,57.5,30.18,NNW,330,0.0,2.0,89,0.00,,,0.00,Wunderground v.1.15,2013-08-17 08:39:00,
2013-08-17 04:44:00,61.0,57.4,30.18,NNW,330,0.0,3.0,88,0.00,,,0.00,Wunderground v.1.15,2013-08-17 08:44:00,
2013-08-17 04:49:00,61.0,57.4,30.18,NNE,13,0.0,3.0,88,0.00,,,0.00,Wunderground v.1.15,2013-08-17 08:49:00,
2013-08-17 04:54:00,61.1,57.5,30.19,NNE,13,1.0,2.0,88,0.00,,,0.00,Wunderground v.1.15,2013-08-17 08:54:00,
2013-08-17 04:59:00,61.2,57.3,30.19,NNE,12,1.0,2.0,87,0.00,,,0.00,Wunderground v.1.15,2013-08-17 08:59:00,
2013-08-17 05:04:00,61.3,57.4,30.19,NNE,12,0.0,2.0,87,0.00,,,0.00,Wunderground v.1.15,2013-08-17 09:04:00,
2013-08-17 05:09:00,61.4,57.2,30.19,NNE,12,0.0,2.0,86,0.00,,,0.00,Wunderground v.1.15,2013-08-17 09:09:00,
2013-08-17 05:14:00,61.6,57.4,30.19,NNE,12,0.0,2.0,86,0.00,,,0.00,Wunderground v.1.15,2013-08-17 09:14:00,
2013-08-17 05:19:00,61.4,57.2,30.20,North,1,0.0,2.0,86,0.00,,,0.00,Wunderground v.1.15,2013-08-17 09:19:00,
2013-08-17 05:24:00,61.4,57.2,30.20,North,1,0.0,1.0,86,0.00,,,0.00,Wunderground v.1.15,2013-08-17 09:24:00,
2013-08-17 05:29:00,61.4,56.8,30.20,North,1,0.0,1.0,85,0.00,,,0.00,Wunderground v.1.15,2013-08-17 09:29:00,
2013-08-17 05:34:00,61.3,57.1,30.20,North,1,0.0,1.0,86,0.00,,,0.00,Wunderground v.1.15,2013-08-17 09:34:00,
2013-08-17 05:39:00,61.2,57.0,30.20,North,1,0.0,2.0,86,0.00,,,0.00,Wunderground v.1.15,2013-08-17 09:39:00,
2013-08-17 05:44:00,61.3,57.1,30.20,North,1,0.0,1.0,86,0.00,,,0.00,Wunderground v.1.15,2013-08-17 09:44:00,
2013-08-17 05:49:00,61.2,57.0,30.20,NNW,348,0.0,3.0,86,0.00,,,0.00,Wunderground v.1.15,2013-08-17 09:49:00,
2013-08-17 05:55:00,61.2,57.0,30.20,NNW,348,0.0,1.0,86,0.00,,,0.00,Wunderground v.1.15,2013-08-17 09:55:00,
2013-08-17 06:00:00,61.3,57.4,30.20,NNW,348,0.0,0.0,87,0.00,,,0.00,Wunderground v.1.15,2013-08-17 10:00:00,
2013-08-17 06:05:00,61.2,57.3,30.20,NNW,340,0.0,2.0,87,0.00,,,0.00,Wunderground v.1.15,2013-08-17 10:05:00,
2013-08-17 06:10:00,61.1,57.2,30.20,NNW,340,0.0,0.0,87,0.00,,,0.00,Wunderground v.1.15,2013-08-17 10:10:00,
2013-08-17 06:15:00,61.2,57.3,30.20,NNW,340,1.0,3.0,87,0.00,,,0.00,Wunderground v.1.15,2013-08-17 10:15:00,
2013-08-17 06:20:00,61.1,57.2,30.20,NNW,340,0.0,0.0,87,0.00,,,0.00,Wunderground v.1.15,2013-08-17 10:20:00,
2013-08-17 06:25:00,61.1,57.2,30.20,NNW,340,0.0,1.0,87,0.00,,,0.00,Wunderground v.1.15,2013-08-17 10:25:00,
2013-08-17 06:30:00,61.1,57.5,30.20,NNW,340,0.0,0.0,88,0.00,,,0.00,Wunderground v.1.15,2013-08-17 10:30:00,
2013-08-17 06:35:00,61.1,57.2,30.20,NNW,340,0.0,1.0,87,0.00,,,0.00,Wunderground v.1.15,2013-08-17 10:35:00,
2013-08-17 06:40:00,61.2,57.3,30.21,NNW,340,0.0,0.0,87,0.00,,,0.00,Wunderground v.1.15,2013-08-17 10:40:00,
2013-08-17 06:45:00,61.1,57.5,30.21,NNW,340,0.0,1.0,88,0.00,,,0.00,Wunderground v.1.15,2013-08-17 10:45:00,
2013-08-17 06:50:00,60.9,57.3,30.21,NNW,340,0.0,0.0,88,0.00,,,0.00,Wunderground v.1.15,2013-08-17 10:50:00,
2013-08-17 06:55:00,60.8,57.2,30.21,NNW,340,1.0,1.0,88,0.00,,,0.00,Wunderground v.1.15,2013-08-17 10:55:00,
2013-08-17 07:00:00,60.8,57.2,30.22,NNW,340,0.0,0.0,88,0.00,,,0.00,Wunderground v.1.15,2013-08-17 11:00:00,
2013-08-17 07:05:00,60.7,57.1,30.21,NNW,340,0.0,0.0,88,0.00,,,0.00,Wunderground v.1.15,2013-08-17 11:05:00,
2013-08-17 07:10:00,60.7,57.1,30.21,NNW,340,0.0,0.0,88,0.00,,,0.00,Wunderground v.1.15,2013-08-17 11:10:00,
2013-08-17 07:15:00,60.9,57.3,30.21,NNW,340,0.0,1.0,88,0.00,,,0.00,Wunderground v.1.15,2013-08-17 11:15:00,
2013-08-17 07:20:00,61.1,57.5,30.22,SSW,202,1.0,1.0,88,0.00,,,0.00,Wunderground v.1.15,2013-08-17 11:20:00,
2013-08-17 07:25:00,61.2,57.3,30.22,North,9,0.0,2.0,87,0.00,,,0.00,Wunderground v.1.15,2013-08-17 11:25:00,
2013-08-17 07:30:00,61.6,58.0,30.22,NW,324,2.0,2.0,88,0.00,,,0.00,Wunderground v.1.15,2013-08-17 11:30:00,
2013-08-17 07:35:00,62.0,58.1,30.22,North,349,2.0,3.0,87,0.00,,,0.00,Wunderground v.1.15,2013-08-17 11:35:00,
2013-08-17 07:40:00,62.5,58.3,30.22,NNW,348,0.0,0.0,86,0.00,,,0.00,Wunderground v.1.15,2013-08-17 11:40:00,
2013-08-17 07:45:00,62.8,58.2,30.22,NNW,346,1.0,3.0,85,0.00,,,0.00,Wunderground v.1.15,2013-08-17 11:45:00,
2013-08-17 07:50:00,62.6,58.0,30.23,NNW,346,0.0,2.0,85,0.00,,,0.00,Wunderground v.1.15,2013-08-17 11:50:00,
2013-08-17 07:55:00,62.8,58.2,30.23,NNW,346,0.0,2.0,85,0.00,,,0.00,Wunderground v.1.15,2013-08-17 11:55:00,
2013-08-17 08:00:00,62.7,58.1,30.22,NNW,346,0.0,0.0,85,0.00,,,0.00,Wunderground v.1.15,2013-08-17 12:00:00,
2013-08-17 08:05:00,62.8,58.2,30.23,NNW,346,0.0,1.0,85,0.00,,,0.00,Wunderground v.1.15,2013-08-17 12:05:00,
2013-08-17 08:06:00,62.8,58.2,30.23,NNW,346,0.0,1.0,85,0.00,,,0.00,Wunderground v.1.15,2013-08-17 12:06:00,
2013-08-17 08:11:00,63.0,58.7,30.23,NNW,340,0.0,0.0,86,0.00,,,0.00,Wunderground v.1.15,2013-08-17 12:11:00,
2013-08-17 08:16:00,63.1,58.5,30.23,WNW,300,0.0,2.0,85,0.00,,,0.00,Wunderground v.1.15,2013-08-17 12:16:00,
2013-08-17 08:21:00,63.5,58.6,30.23,WNW,300,0.0,0.0,84,0.00,,,0.00,Wunderground v.1.15,2013-08-17 12:21:00,
2013-08-17 08:26:00,63.7,58.8,30.23,NW,315,0.0,2.0,84,0.00,,,0.00,Wunderground v.1.15,2013-08-17 12:26:00,
2013-08-17 08:31:00,63.6,58.7,30.23,NW,315,0.0,0.0,84,0.00,,,0.00,Wunderground v.1.15,2013-08-17 12:31:00,
2013-08-17 08:37:00,63.7,58.8,30.23,NW,315,0.0,0.0,84,0.00,,,0.00,Wunderground v.1.15,2013-08-17 12:37:00,
2013-08-17 08:42:00,64.1,59.2,30.23,NW,315,0.0,0.0,84,0.00,,,0.00,Wunderground v.1.15,2013-08-17 12:42:00,
2013-08-17 08:47:00,64.4,59.1,30.23,NW,315,0.0,1.0,83,0.00,,,0.00,Wunderground v.1.15,2013-08-17 12:47:00,
2013-08-17 08:52:00,64.5,59.6,30.23,NW,315,0.0,0.0,84,0.00,,,0.00,Wunderground v.1.15,2013-08-17 12:52:00,
2013-08-17 08:57:00,64.4,59.1,30.24,NW,315,1.0,1.0,83,0.00,,,0.00,Wunderground v.1.15,2013-08-17 12:57:00,
2013-08-17 09:02:00,64.3,59.0,30.24,NW,315,0.0,0.0,83,0.00,,,0.00,Wunderground v.1.15,2013-08-17 13:02:00,
2013-08-17 09:07:00,64.5,59.6,30.24,NW,315,0.0,1.0,84,0.00,,,0.00,Wunderground v.1.15,2013-08-17 13:07:00,
2013-08-17 09:12:00,65.1,59.8,30.24,NW,315,0.0,1.0,83,0.00,,,0.00,Wunderground v.1.15,2013-08-17 13:12:00,
2013-08-17 09:17:00,65.7,60.1,30.24,NW,319,0.0,1.0,82,0.00,,,0.00,Wunderground v.1.15,2013-08-17 13:17:00,
2013-08-17 09:22:00,66.5,60.1,30.24,NW,319,0.0,1.0,80,0.00,,,0.00,Wunderground v.1.15,2013-08-17 13:22:00,
2013-08-17 09:27:00,67.2,61.5,30.24,NW,319,0.0,1.0,82,0.00,,,0.00,Wunderground v.1.15,2013-08-17 13:27:00,
2013-08-17 09:32:00,67.5,61.1,30.24,WNW,291,0.0,2.0,80,0.00,,,0.00,Wunderground v.1.15,2013-08-17 13:32:00,
2013-08-17 09:37:00,68.1,62.0,30.24,NW,311,0.0,2.0,81,0.00,,,0.00,Wunderground v.1.15,2013-08-17 13:37:00,
2013-08-17 09:42:00,68.5,61.7,30.24,NNE,22,0.0,1.0,79,0.00,,,0.00,Wunderground v.1.15,2013-08-17 13:42:00,
2013-08-17 09:47:00,69.2,62.4,30.24,NNE,22,0.0,2.0,79,0.00,,,0.00,Wunderground v.1.15,2013-08-17 13:47:00,
2013-08-17 09:52:00,69.7,61.8,30.24,East,90,0.0,3.0,76,0.00,,,0.00,Wunderground v.1.15,2013-08-17 13:52:00,
2013-08-17 09:57:00,70.1,61.8,30.24,ENE,72,5.0,5.0,75,0.00,,,0.00,Wunderground v.1.15,2013-08-17 13:57:00,
2013-08-17 10:02:00,70.8,62.5,30.24,ENE,76,1.0,2.0,75,0.00,,,0.00,Wunderground v.1.15,2013-08-17 14:02:00,
2013-08-17 10:07:00,71.8,61.5,30.24,SE,128,2.0,3.0,70,0.00,,,0.00,Wunderground v.1.15,2013-08-17 14:07:00,
2013-08-17 10:12:00,71.7,61.0,30.24,East,92,2.0,4.0,69,0.00,,,0.00,Wunderground v.1.15,2013-08-17 14:12:00,
2013-08-17 10:17:00,71.9,60.8,30.24,North,356,1.0,5.0,68,0.00,,,0.00,Wunderground v.1.15,2013-08-17 14:17:00,
2013-08-17 10:22:00,72.0,60.9,30.24,East,91,0.0,6.0,68,0.00,,,0.00,Wunderground v.1.15,2013-08-17 14:22:00,
2013-08-17 10:27:00,72.6,61.8,30.24,East,79,1.0,7.0,69,0.00,,,0.00,Wunderground v.1.15,2013-08-17 14:27:00,
2013-08-17 10:32:00,72.7,60.7,30.24,ENE,65,6.0,10.0,66,0.00,,,0.00,Wunderground v.1.15,2013-08-17 14:32:00,
2013-08-17 10:37:00,72.8,61.2,30.24,ENE,77,1.0,10.0,67,0.00,,,0.00,Wunderground v.1.15,2013-08-17 14:37:00,
2013-08-17 10:42:00,73.4,60.9,30.24,NE,44,3.0,7.0,65,0.00,,,0.00,Wunderground v.1.15,2013-08-17 14:42:00,
2013-08-17 10:47:00,73.5,59.2,30.24,East,94,5.0,11.0,61,0.00,,,0.00,Wunderground v.1.15,2013-08-17 14:47:00,
2013-08-17 10:52:00,74.2,60.3,30.24,East,86,1.0,6.0,62,0.00,,,0.00,Wunderground v.1.15,2013-08-17 14:52:00,
2013-08-17 10:57:00,74.8,59.5,30.24,NE,54,6.0,8.0,59,0.00,,,0.00,Wunderground v.1.15,2013-08-17 14:57:00,
2013-08-17 11:02:00,74.6,60.3,30.25,ENE,73,1.0,8.0,61,0.00,,,0.00,Wunderground v.1.15,2013-08-17 15:02:00,
2013-08-17 11:07:00,74.7,59.4,30.25,East,96,2.0,10.0,59,0.00,,,0.00,Wunderground v.1.15,2013-08-17 15:07:00,
2013-08-17 11:12:00,74.1,58.4,30.25,NE,49,3.0,7.0,58,0.00,,,0.00,Wunderground v.1.15,2013-08-17 15:12:00,
2013-08-17 11:17:00,74.6,58.8,30.25,East,99,1.0,7.0,58,0.00,,,0.00,Wunderground v.1.15,2013-08-17 15:17:00,
2013-08-17 11:22:00,75.1,59.8,30.24,ENE,64,5.0,5.0,59,0.00,,,0.00,Wunderground v.1.15,2013-08-17 15:22:00,
2013-08-17 11:27:00,75.0,59.2,30.24,NE,52,7.0,9.0,58,0.00,,,0.00,Wunderground v.1.15,2013-08-17 15:27:00,
2013-08-17 11:32:00,75.0,60.2,30.24,ENE,65,5.0,8.0,60,0.00,,,0.00,Wunderground v.1.15,2013-08-17 15:32:00,
2013-08-17 11:37:00,75.5,59.7,30.24,East,85,4.0,8.0,58,0.00,,,0.00,Wunderground v.1.15,2013-08-17 15:37:00,
2013-08-17 11:43:00,75.7,59.4,30.24,ENE,63,5.0,9.0,57,0.00,,,0.00,Wunderground v.1.15,2013-08-17 15:43:00,
2013-08-17 11:48:00,75.8,58.0,30.24,NE,46,3.0,9.0,54,0.00,,,0.00,Wunderground v.1.15,2013-08-17 15:48:00,
2013-08-17 11:53:00,75.7,59.4,30.24,East,90,5.0,7.0,57,0.00,,,0.00,Wunderground v.1.15,2013-08-17 15:53:00,
2013-08-17 11:58:00,76.2,60.3,30.23,NE,53,3.0,9.0,58,0.00,,,0.00,Wunderground v.1.15,2013-08-17 15:58:00,
2013-08-17 12:03:00,76.1,59.8,30.24,ENE,57,5.0,6.0,57,0.00,,,0.00,Wunderground v.1.15,2013-08-17 16:03:00,
2013-08-17 12:08:00,76.3,58.9,30.23,NE,51,3.0,7.0,55,0.00,,,0.00,Wunderground v.1.15,2013-08-17 16:08:00,
2013-08-17 12:13:00,76.3,58.4,30.24,NE,49,4.0,9.0,54,0.00,,,0.00,Wunderground v.1.15,2013-08-17 16:13:00,
2013-08-17 12:18:00,75.6,58.3,30.24,ENE,59,2.0,13.0,55,0.00,,,0.00,Wunderground v.1.15,2013-08-17 16:18:00,
2013-08-17 12:23:00,75.6,58.3,30.23,NE,43,5.0,10.0,55,0.00,,,0.00,Wunderground v.1.15,2013-08-17 16:23:00,
2013-08-17 12:28:00,75.9,58.6,30.23,ENE,57,6.0,10.0,55,0.00,,,0.00,Wunderground v.1.15,2013-08-17 16:28:00,
2013-08-17 12:33:00,75.4,58.1,30.23,ENE,70,6.0,11.0,55,0.00,,,0.00,Wunderground v.1.15,2013-08-17 16:33:00,
2013-08-17 12:38:00,75.3,59.0,30.23,WNW,290,3.0,11.0,57,0.00,,,0.00,Wunderground v.1.15,2013-08-17 16:38:00,
2013-08-17 12:43:00,75.2,58.4,30.23,ENE,74,1.0,6.0,56,0.00,,,0.00,Wunderground v.1.15,2013-08-17 16:43:00,
2013-08-17 12:48:00,75.8,60.0,30.23,East,80,5.0,7.0,58,0.00,,,0.00,Wunderground v.1.15,2013-08-17 16:48:00,
2013-08-17 12:53:00,76.0,59.2,30.23,ENE,65,1.0,3.0,56,0.00,,,0.00,Wunderground v.1.15,2013-08-17 16:53:00,
2013-08-17 12:58:00,76.2,59.9,30.23,ENE,67,6.0,10.0,57,0.00,,,0.00,Wunderground v.1.15,2013-08-17 16:58:00,
2013-08-17 13:03:00,75.9,59.1,30.23,ENE,78,9.0,10.0,56,0.00,,,0.00,Wunderground v.1.15,2013-08-17 17:03:00,
2013-08-17 13:08:00,75.8,59.0,30.23,ENE,66,3.0,10.0,56,0.00,,,0.00,Wunderground v.1.15,2013-08-17 17:08:00,
2013-08-17 13:13:00,76.0,59.7,30.23,East,82,4.0,5.0,57,0.00,,,0.00,Wunderground v.1.15,2013-08-17 17:13:00,
2013-08-17 13:18:00,76.6,59.2,30.22,East,84,4.0,9.0,55,0.00,,,0.00,Wunderground v.1.15,2013-08-17 17:18:00,
2013-08-17 13:23:00,76.5,60.1,30.22,NE,36,4.0,8.0,57,0.00,,,0.00,Wunderground v.1.15,2013-08-17 17:23:00,
2013-08-17 13:28:00,77.0,59.6,30.22,NE,42,5.0,8.0,55,0.00,,,0.00,Wunderground v.1.15,2013-08-17 17:28:00,
2013-08-17 13:33:00,76.9,59.5,30.22,ENE,70,5.0,7.0,55,0.00,,,0.00,Wunderground v.1.15,2013-08-17 17:33:00,
2013-08-17 13:38:00,76.9,60.0,30.22,SE,145,2.0,7.0,56,0.00,,,0.00,Wunderground v.1.15,2013-08-17 17:38:00,
2013-08-17 13:43:00,76.9,61.0,30.22,NNE,28,2.0,10.0,58,0.00,,,0.00,Wunderground v.1.15,2013-08-17 17:43:00,
2013-08-17 13:48:00,76.6,59.2,30.22,NE,42,4.0,10.0,55,0.00,,,0.00,Wunderground v.1.15,2013-08-17 17:48:00,
2013-08-17 13:53:00,76.4,60.0,30.22,East,90,3.0,6.0,57,0.00,,,0.00,Wunderground v.1.15,2013-08-17 17:53:00,
2013-08-17 13:58:00,77.1,60.7,30.22,SE,125,2.0,8.0,57,0.00,,,0.00,Wunderground v.1.15,2013-08-17 17:58:00,
2013-08-17 14:03:00,76.8,59.4,30.22,East,95,2.0,7.0,55,0.00,,,0.00,Wunderground v.1.15,2013-08-17 18:03:00,
2013-08-17 14:08:00,76.4,57.5,30.22,ENE,63,3.0,9.0,52,0.00,,,0.00,Wunderground v.1.15,2013-08-17 18:08:00,
2013-08-17 14:13:00,77.0,59.1,30.22,NE,44,2.0,5.0,54,0.00,,,0.00,Wunderground v.1.15,2013-08-17 18:13:00,
2013-08-17 14:18:00,77.7,59.7,30.22,NE,52,1.0,6.0,54,0.00,,,0.00,Wunderground v.1.15,2013-08-17 18:18:00,
2013-08-17 14:23:00,77.4,57.9,30.22,South,170,1.0,7.0,51,0.00,,,0.00,Wunderground v.1.15,2013-08-17 18:23:00,
2013-08-17 14:28:00,77.5,59.5,30.22,East,80,2.0,7.0,54,0.00,,,0.00,Wunderground v.1.15,2013-08-17 18:28:00,
2013-08-17 14:33:00,78.2,59.1,30.22,ESE,109,3.0,5.0,52,0.00,,,0.00,Wunderground v.1.15,2013-08-17 18:33:00,
2013-08-17 14:38:00,77.9,58.9,30.22,ENE,63,7.0,9.0,52,0.00,,,0.00,Wunderground v.1.15,2013-08-17 18:38:00,
2013-08-17 14:43:00,78.4,59.3,30.22,NNE,32,3.0,6.0,52,0.00,,,0.00,Wunderground v.1.15,2013-08-17 18:43:00,
2013-08-17 14:48:00,77.8,59.3,30.21,ESE,115,1.0,11.0,53,0.00,,,0.00,Wunderground v.1.15,2013-08-17 18:48:00,
2013-08-17 14:53:00,77.8,59.3,30.21,ENE,78,3.0,6.0,53,0.00,,,0.00,Wunderground v.1.15,2013-08-17 18:53:00,
2013-08-17 14:58:00,77.7,58.1,30.21,ENE,62,7.0,10.0,51,0.00,,,0.00,Wunderground v.1.15,2013-08-17 18:58:00,
2013-08-17 15:03:00,76.9,57.9,30.21,ENE,78,5.0,9.0,52,0.00,,,0.00,Wunderground v.1.15,2013-08-17 19:03:00,
2013-08-17 15:08:00,77.0,58.0,30.21,ENE,57,3.0,9.0,52,0.00,,,0.00,Wunderground v.1.15,2013-08-17 19:08:00,
2013-08-17 15:13:00,76.8,57.3,30.21,NNE,28,1.0,8.0,51,0.00,,,0.00,Wunderground v.1.15,2013-08-17 19:13:00,
2013-08-17 15:19:00,77.7,59.7,30.21,ENE,61,1.0,8.0,54,0.00,,,0.00,Wunderground v.1.15,2013-08-17 19:19:00,
2013-08-17 15:23:00,77.8,58.2,30.21,ENE,67,6.0,7.0,51,0.00,,,0.00,Wunderground v.1.15,2013-08-17 19:23:00,
2013-08-17 15:28:00,77.4,57.3,30.20,ENE,61,5.0,9.0,50,0.00,,,0.00,Wunderground v.1.15,2013-08-17 19:28:00,
2013-08-17 15:34:00,77.6,58.0,30.20,NNE,26,4.0,7.0,51,0.00,,,0.00,Wunderground v.1.15,2013-08-17 19:34:00,
2013-08-17 15:39:00,78.3,59.2,30.20,East,94,0.0,8.0,52,0.00,,,0.00,Wunderground v.1.15,2013-08-17 19:39:00,
2013-08-17 15:44:00,78.2,57.5,30.20,ESE,117,0.0,8.0,49,0.00,,,0.00,Wunderground v.1.15,2013-08-17 19:44:00,
2013-08-17 15:49:00,77.6,58.6,30.19,East,82,2.0,8.0,52,0.00,,,0.00,Wunderground v.1.15,2013-08-17 19:49:00,
2013-08-17 15:54:00,77.3,58.3,30.19,East,88,4.0,7.0,52,0.00,,,0.00,Wunderground v.1.15,2013-08-17 19:54:00,
2013-08-17 15:59:00,77.3,57.8,30.19,NE,44,2.0,7.0,51,0.00,,,0.00,Wunderground v.1.15,2013-08-17 19:59:00,
2013-08-17 16:04:00,77.5,57.4,30.19,ENE,71,6.0,10.0,50,0.00,,,0.00,Wunderground v.1.15,2013-08-17 20:04:00,
2013-08-17 16:09:00,77.4,57.9,30.19,SSW,208,2.0,10.0,51,0.00,,,0.00,Wunderground v.1.15,2013-08-17 20:09:00,
2013-08-17 16:14:00,77.1,58.6,30.19,ESE,121,1.0,4.0,53,0.00,,,0.00,Wunderground v.1.15,2013-08-17 20:14:00,
2013-08-17 16:19:00,77.3,57.8,30.19,ENE,62,7.0,8.0,51,0.00,,,0.00,Wunderground v.1.15,2013-08-17 20:19:00,
2013-08-17 16:24:00,76.9,57.9,30.19,ENE,74,1.0,10.0,52,0.00,,,0.00,Wunderground v.1.15,2013-08-17 20:24:00,
2013-08-17 16:29:00,77.6,59.1,30.19,NNE,24,3.0,10.0,53,0.00,,,0.00,Wunderground v.1.15,2013-08-17 20:29:00,
2013-08-17 16:34:00,77.6,59.6,30.19,ESE,109,3.0,7.0,54,0.00,,,0.00,Wunderground v.1.15,2013-08-17 20:34:00,
2013-08-17 16:39:00,77.5,57.9,30.19,ENE,67,2.0,7.0,51,0.00,,,0.00,Wunderground v.1.15,2013-08-17 20:39:00,
2013-08-17 16:44:00,77.2,59.3,30.19,East,97,1.0,4.0,54,0.00,,,0.00,Wunderground v.1.15,2013-08-17 20:44:00,
2013-08-17 16:49:00,77.1,58.6,30.19,ENE,60,5.0,7.0,53,0.00,,,0.00,Wunderground v.1.15,2013-08-17 20:49:00,
2013-08-17 16:54:00,76.8,59.4,30.20,NE,50,1.0,5.0,55,0.00,,,0.00,Wunderground v.1.15,2013-08-17 20:54:00,
2013-08-17 16:59:00,76.9,59.0,30.20,NE,51,1.0,5.0,54,0.00,,,0.00,Wunderground v.1.15,2013-08-17 20:59:00,
2013-08-17 17:04:00,76.7,58.8,30.20,NE,35,8.0,8.0,54,0.00,,,0.00,Wunderground v.1.15,2013-08-17 21:04:00,
2013-08-17 17:09:00,76.6,59.2,30.19,ENE,57,0.0,8.0,55,0.00,,,0.00,Wunderground v.1.15,2013-08-17 21:09:00,
2013-08-17 17:14:00,77.0,61.1,30.19,SSE,152,1.0,5.0,58,0.00,,,0.00,Wunderground v.1.15,2013-08-17 21:14:00,
2013-08-17 17:19:00,77.5,60.6,30.20,ESE,105,4.0,6.0,56,0.00,,,0.00,Wunderground v.1.15,2013-08-17 21:19:00,
2013-08-17 17:24:00,77.1,58.1,30.20,East,82,3.0,8.0,52,0.00,,,0.00,Wunderground v.1.15,2013-08-17 21:24:00,
2013-08-17 17:29:00,76.7,58.3,30.19,East,90,4.0,8.0,53,0.00,,,0.00,Wunderground v.1.15,2013-08-17 21:29:00,
2013-08-17 17:34:00,76.4,58.5,30.19,ENE,69,0.0,7.0,54,0.00,,,0.00,Wunderground v.1.15,2013-08-17 21:34:00,
2013-08-17 17:39:00,76.2,59.4,30.19,ENE,70,1.0,7.0,56,0.00,,,0.00,Wunderground v.1.15,2013-08-17 21:39:00,
2013-08-17 17:44:00,75.9,60.5,30.19,ESE,104,0.0,5.0,59,0.00,,,0.00,Wunderground v.1.15,2013-08-17 21:44:00,
2013-08-17 17:49:00,75.8,60.0,30.19,East,81,1.0,5.0,58,0.00,,,0.00,Wunderground v.1.15,2013-08-17 21:49:00,
2013-08-17 17:54:00,75.6,59.3,30.19,ESE,117,2.0,10.0,57,0.00,,,0.00,Wunderground v.1.15,2013-08-17 21:54:00,
2013-08-17 18:00:00,75.5,59.2,30.19,ENE,63,6.0,6.0,57,0.00,,,0.00,Wunderground v.1.15,2013-08-17 22:00:00,
2013-08-17 18:05:00,75.4,59.6,30.19,ENE,66,1.0,6.0,58,0.00,,,0.00,Wunderground v.1.15,2013-08-17 22:05:00,
2013-08-17 18:10:00,75.4,59.6,30.19,NE,42,4.0,4.0,58,0.00,,,0.00,Wunderground v.1.15,2013-08-17 22:10:00,
2013-08-17 18:15:00,75.4,60.1,30.19,NNE,25,1.0,7.0,59,0.00,,,0.00,Wunderground v.1.15,2013-08-17 22:15:00,
2013-08-17 18:20:00,75.3,59.5,30.19,NE,43,3.0,4.0,58,0.00,,,0.00,Wunderground v.1.15,2013-08-17 22:20:00,
2013-08-17 18:25:00,75.1,59.3,30.19,ENE,67,2.0,7.0,58,0.00,,,0.00,Wunderground v.1.15,2013-08-17 22:25:00,
2013-08-17 18:30:00,75.0,60.2,30.19,ENE,67,0.0,2.0,60,0.00,,,0.00,Wunderground v.1.15,2013-08-17 22:30:00,
2013-08-17 18:35:00,74.9,60.1,30.19,ENE,66,0.0,3.0,60,0.00,,,0.00,Wunderground v.1.15,2013-08-17 22:35:00,
2013-08-17 18:40:00,74.8,60.4,30.19,NE,48,1.0,1.0,61,0.00,,,0.00,Wunderground v.1.15,2013-08-17 22:40:00,
2013-08-17 18:45:00,74.9,60.1,30.19,NE,34,2.0,4.0,60,0.00,,,0.00,Wunderground v.1.15,2013-08-17 22:45:00,
2013-08-17 18:50:00,74.9,60.1,30.19,NE,36,7.0,7.0,60,0.00,,,0.00,Wunderground v.1.15,2013-08-17 22:50:00,
2013-08-17 18:55:00,74.8,59.5,30.19,ENE,61,5.0,7.0,59,0.00,,,0.00,Wunderground v.1.15,2013-08-17 22:55:00,
2013-08-17 19:00:00,74.7,58.9,30.19,NE,47,2.0,4.0,58,0.00,,,0.00,Wunderground v.1.15,2013-08-17 23:00:00,
2013-08-17 19:05:00,74.6,58.8,30.19,ESE,103,1.0,7.0,58,0.00,,,0.00,Wunderground v.1.15,2013-08-17 23:05:00,
2013-08-17 19:10:00,74.5,58.8,30.19,NE,53,3.0,5.0,58,0.00,,,0.00,Wunderground v.1.15,2013-08-17 23:10:00,
2013-08-17 19:15:00,74.4,58.7,30.19,NE,39,2.0,7.0,58,0.00,,,0.00,Wunderground v.1.15,2013-08-17 23:15:00,
2013-08-17 19:20:00,74.3,58.6,30.20,ENE,67,1.0,3.0,58,0.00,,,0.00,Wunderground v.1.15,2013-08-17 23:20:00,
2013-08-17 19:25:00,74.3,58.6,30.19,ENE,59,1.0,3.0,58,0.00,,,0.00,Wunderground v.1.15,2013-08-17 23:25:00,
2013-08-17 19:30:00,74.2,58.9,30.19,ENE,66,1.0,2.0,59,0.00,,,0.00,Wunderground v.1.15,2013-08-17 23:30:00,
2013-08-17 19:35:00,74.1,58.9,30.20,ENE,66,0.0,2.0,59,0.00,,,0.00,Wunderground v.1.15,2013-08-17 23:35:00,
2013-08-17 19:40:00,73.9,58.7,30.20,North,353,0.0,2.0,59,0.00,,,0.00,Wunderground v.1.15,2013-08-17 23:40:00,
2013-08-17 19:45:00,73.8,58.6,30.20,NNE,26,1.0,3.0,59,0.00,,,0.00,Wunderground v.1.15,2013-08-17 23:45:00,
2013-08-17 19:50:00,73.8,59.0,30.20,ENE,59,5.0,5.0,60,0.00,,,0.00,Wunderground v.1.15,2013-08-17 23:50:00,
2013-08-17 19:56:00,73.8,58.6,30.20,NE,49,3.0,5.0,59,0.00,,,0.00,Wunderground v.1.15,2013-08-17 23:56:00,
2013-08-17 20:01:00,73.7,58.9,30.20,ESE,109,2.0,5.0,60,0.00,,,0.00,Wunderground v.1.15,2013-08-18 00:01:00,
2013-08-17 20:06:00,73.7,58.9,30.20,East,84,2.0,5.0,60,0.00,,,0.00,Wunderground v.1.15,2013-08-18 00:06:00,
2013-08-17 20:11:00,73.6,58.9,30.20,ENE,69,1.0,2.0,60,0.00,,,0.00,Wunderground v.1.15,2013-08-18 00:11:00,
2013-08-17 20:16:00,73.5,58.8,30.20,ENE,69,1.0,5.0,60,0.00,,,0.00,Wunderground v.1.15,2013-08-18 00:16:00,
2013-08-17 20:21:00,73.4,59.6,30.20,ENE,58,0.0,1.0,62,0.00,,,0.00,Wunderground v.1.15,2013-08-18 00:21:00,
2013-08-17 20:26:00,72.8,59.9,30.20,ENE,58,0.0,1.0,64,0.00,,,0.00,Wunderground v.1.15,2013-08-18 00:26:00,
2013-08-17 20:31:00,72.4,59.1,30.20,ENE,58,0.0,0.0,63,0.00,,,0.00,Wunderground v.1.15,2013-08-18 00:31:00,
2013-08-17 20:36:00,72.7,59.4,30.20,ENE,58,0.0,2.0,63,0.00,,,0.00,Wunderground v.1.15,2013-08-18 00:36:00,
2013-08-17 20:41:00,72.7,60.3,30.20,ENE,58,0.0,1.0,65,0.00,,,0.00,Wunderground v.1.15,2013-08-18 00:41:00,
2013-08-17 20:46:00,72.6,59.7,30.20,ENE,58,0.0,1.0,64,0.00,,,0.00,Wunderground v.1.15,2013-08-18 00:46:00,
2013-08-17 20:51:00,72.5,59.6,30.20,East,81,1.0,2.0,64,0.00,,,0.00,Wunderground v.1.15,2013-08-18 00:51:00,
2013-08-17 20:56:00,72.6,59.7,30.20,East,81,1.0,3.0,64,0.00,,,0.00,Wunderground v.1.15,2013-08-18 00:56:00,
2013-08-17 21:01:00,72.6,59.7,30.21,ESE,110,0.0,2.0,64,0.00,,,0.00,Wunderground v.1.15,2013-08-18 01:01:00,
2013-08-17 21:06:00,72.5,59.6,30.21,ESE,110,0.0,2.0,64,0.00,,,0.00,Wunderground v.1.15,2013-08-18 01:06:00,
2013-08-17 21:11:00,72.4,60.0,30.21,NE,55,0.0,3.0,65,0.00,,,0.00,Wunderground v.1.15,2013-08-18 01:11:00,
2013-08-17 21:16:00,72.1,59.7,30.22,ENE,63,0.0,5.0,65,0.00,,,0.00,Wunderground v.1.15,2013-08-18 01:16:00,
2013-08-17 21:21:00,72.1,60.1,30.22,ENE,63,0.0,2.0,66,0.00,,,0.00,Wunderground v.1.15,2013-08-18 01:21:00,
2013-08-17 21:26:00,72.3,60.3,30.22,ENE,64,2.0,3.0,66,0.00,,,0.00,Wunderground v.1.15,2013-08-18 01:26:00,
2013-08-17 21:31:00,72.3,60.3,30.22,ENE,64,2.0,2.0,66,0.00,,,0.00,Wunderground v.1.15,2013-08-18 01:31:00,
2013-08-17 21:36:00,72.3,60.7,30.22,ENE,64,0.0,2.0,67,0.00,,,0.00,Wunderground v.1.15,2013-08-18 01:36:00,
2013-08-17 21:41:00,72.1,60.5,30.22,ENE,64,2.0,2.0,67,0.00,,,0.00,Wunderground v.1.15,2013-08-18 01:41:00,
2013-08-17 21:47:00,72.2,60.2,30.22,ENE,76,2.0,3.0,66,0.00,,,0.00,Wunderground v.1.15,2013-08-18 01:47:00,
2013-08-17 21:52:00,72.3,59.4,30.22,ENE,71,3.0,3.0,64,0.00,,,0.00,Wunderground v.1.15,2013-08-18 01:52:00,
2013-08-17 21:57:00,72.3,59.4,30.22,NE,50,4.0,7.0,64,0.00,,,0.00,Wunderground v.1.15,2013-08-18 01:57:00,
2013-08-17 22:02:00,72.4,59.1,30.22,East,85,2.0,5.0,63,0.00,,,0.00,Wunderground v.1.15,2013-08-18 02:02:00,
2013-08-17 22:07:00,72.3,59.4,30.22,ENE,65,3.0,5.0,64,0.00,,,0.00,Wunderground v.1.15,2013-08-18 02:07:00,
2013-08-17 22:12:00,72.2,59.3,30.22,ENE,63,1.0,3.0,64,0.00,,,0.00,Wunderground v.1.15,2013-08-18 02:12:00,
2013-08-17 22:17:00,72.2,59.8,30.22,ENE,76,3.0,5.0,65,0.00,,,0.00,Wunderground v.1.15,2013-08-18 02:17:00,
2013-08-17 22:22:00,72.2,59.8,30.22,NE,52,1.0,3.0,65,0.00,,,0.00,Wunderground v.1.15,2013-08-18 02:22:00,
2013-08-17 22:27:00,72.1,60.1,30.22,NE,52,2.0,5.0,66,0.00,,,0.00,Wunderground v.1.15,2013-08-18 02:27:00,
2013-08-17 22:32:00,72.0,60.4,30.22,ENE,72,1.0,4.0,67,0.00,,,0.00,Wunderground v.1.15,2013-08-18 02:32:00,
2013-08-17 22:37:00,71.9,60.3,30.22,NE,49,2.0,9.0,67,0.00,,,0.00,Wunderground v.1.15,2013-08-18 02:37:00,
2013-08-17 22:42:00,72.0,60.9,30.22,East,80,2.0,5.0,68,0.00,,,0.00,Wunderground v.1.15,2013-08-18 02:42:00,
2013-08-17 22:47:00,71.9,61.2,30.22,ESE,103,3.0,9.0,69,0.00,,,0.00,Wunderground v.1.15,2013-08-18 02:47:00,
2013-08-17 22:52:00,71.8,61.1,30.22,East,79,2.0,5.0,69,0.00,,,0.00,Wunderground v.1.15,2013-08-18 02:52:00,
2013-08-17 22:57:00,71.8,61.9,30.21,NNE,26,5.0,10.0,71,0.00,,,0.00,Wunderground v.1.15,2013-08-18 02:57:00,
2013-08-17 23:02:00,71.7,62.2,30.21,ENE,71,3.0,9.0,72,0.00,,,0.00,Wunderground v.1.15,2013-08-18 03:02:00,
2013-08-17 23:07:00,71.5,62.4,30.21,ENE,65,11.0,11.0,73,0.00,,,0.00,Wunderground v.1.15,2013-08-18 03:07:00,
2013-08-17 23:12:00,71.5,62.8,30.21,NE,52,2.0,9.0,74,0.00,,,0.00,Wunderground v.1.15,2013-08-18 03:12:00,
2013-08-17 23:17:00,71.4,62.7,30.21,NE,44,3.0,11.0,74,0.00,,,0.00,Wunderground v.1.15,2013-08-18 03:17:00,
2013-08-17 23:22:00,71.3,63.0,30.21,NE,56,2.0,12.0,75,0.00,,,0.00,Wunderground v.1.15,2013-08-18 03:22:00,
2013-08-17 23:27:00,71.1,63.1,30.21,ENE,78,3.0,12.0,76,0.00,,,0.00,Wunderground v.1.15,2013-08-18 03:27:00,
2013-08-17 23:32:00,71.0,63.4,30.21,NE,53,0.0,4.0,77,0.00,,,0.00,Wunderground v.1.15,2013-08-18 03:32:00,
2013-08-17 23:37:00,70.8,63.2,30.21,East,88,2.0,6.0,77,0.00,,,0.00,Wunderground v.1.15,2013-08-18 03:37:00,
2013-08-17 23:42:00,70.6,63.0,30.20,ENE,71,5.0,5.0,77,0.00,,,0.00,Wunderground v.1.15,2013-08-18 03:42:00,
2013-08-17 23:48:00,70.6,63.4,30.20,ENE,75,3.0,6.0,78,0.00,,,0.00,Wunderground v.1.15,2013-08-18 03:48:00,
2013-08-17 23:53:00,70.5,63.7,30.20,NE,47,3.0,6.0,79,0.00,,,0.00,Wunderground v.1.15,2013-08-18 03:53:00,
2013-08-17 23:58:00,70.4,63.6,30.20,East,92,4.0,8.0,79,0.00,,,0.00,Wunderground v.1.15,2013-08-18 03:58:00,